CZ-6A DEB

Satellite information

Favourite Embed

Satellite Type and Status

DEBRISIN ORBIT

Key statistics

Satellite CZ-6A DEB at a glance.

Uptime

442

Days in orbit

Revolutions

≈ 14.4

Per day

Orbit

LEO

Low Earth Orbit

Inclination

89.1

Latest

Satellite identification and parameters

Extended collection of information and parameters for CZ-6A DEB.

Object identification

Identified? True

Debris? True

Object name: CZ-6A DEB

International designator: 2024-140ZT

Object number (NORAD): 61461

Object ID (CCSDS): 61461

Country: PEOPLES REPUBLIC OF CHINA (PRC)

Current information (Y/N): Y

RCS size: SMALL

Orbital parameters

Period: 100.252 minutes

Inclination: 89.1186 deg

SMA: 7148.607 km

Apoapsis: 789.545 km

Periapsis: 751.4 km

RAAN: 306.9822 deg

Eccentricy: 0.00266802

Argument of periapsis: 97.3787 deg

Mean anomaly: 263.0446 deg

Mean motion: 14.36384165 rev/day

Mean motion (dot): 0.00007171 rev/day2

B* drag term: 0.0024345612 1/REarth

Two-line elements (TLE)

Creation date: Oct. 20, 2025, 10:26 a.m.

Reference frame: TEME

Reference center: EARTH

Epoch: Oct. 20, 2025, 1:15 a.m. UTC

TLE line 0: 0 CZ-6A DEB

TLE line 1: 1 61461U 24140ZT 25293.05219784 .00007171 00000-0 24346-2 0 9993

TLE line 2: 2 61461 89.1186 306.9822 0026680 97.3787 263.0446 14.36384165 59859

Live tracking on map

Real-time ground track for satellite CZ-6A DEB.

In-orbit conjunctions

A list of the most updated potential collisions computed for object CZ-6A DEB.

Target Orbit TCA Probability of collision Miss distance Type
CZ-6A DEB LEO 2025-02-23 03:59:24 0.000724257 367.0 (m) DEBRIS
CZ-6A DEB LEO 2025-02-23 03:58:56 0.001158018 67.0 (m) DEBRIS
CZ-6A DEB LEO 2025-02-23 03:58:25 0.003945638 321.0 (m) DEBRIS
CZ-6A DEB SSO 2025-02-18 16:27:25 0.0001227185 96.0 (m) DEBRIS
FENGYUN 1C DEB SSO 2025-02-15 17:01:40 0.0003654722 527.0 (m) DEBRIS

Associated space launch

18 Low Earth Orbit communication satellites with Ku, Q and V band payloads for the G60 constellation operated by Shanghai Spacecom Satellite Technology (SSST) with funding backed by the Shanghai local government. Initial constellation will consist of 1296 satellites by 2027 with long term plans to expand it to 12000 satellites.

CZ-6A DEB was lifted into orbit during the mission ‘Long March 6A | G60 Polar Group 01’, on board a Long March 6A space rocket.

The launch took place on Aug. 6, 2024, 6:42 a.m. from Launch Complex 9A.

For more information about the launch, click the button.

Launch to space Long March 6A | G60 Polar Group 01
Long March 6A | G60 Polar Group 01

Agency: N/A

Status: Launch Successful

Launch date: Aug. 6, 2024, 6:42 a.m. UTC

Rocket: Long March 6A

Launch pad: Launch Complex 9A

Location: Taiyuan Satellite Launch Center, People's Republic of China

...

Latest news about this satellite

News about space launch
Brightness of first Chinese broadband constellation satellites alarms astronomers

The first satellites of a Chinese broadband constellation are significantly brighter than those of Western systems, posing a new challenge for astronomers.

News about space launch
Chinese rocket stage breaks up into cloud of more than 700 pieces of space debris

HELSINKI — A Chinese Long March 6A rocket’s upper stage has fragmented into a cloud of over 700 pieces of space debris, adding to concerns about long-term orbital safety. China […]

News about space launch
China's Thousand Sails Megaconstellation Kicks Off with Dangerous Debris Field

China's Thousand Sails Megaconstellation Kicks Off with Dangerous Debris Field


Newsletter sign-up

Weekly statistics, charts and insights to help you stay on top of the space industry.